Location: North Evanston
(42.0634°N, 87.6976°W)
Time: 20:43:52
(UTC+00:00)

Vanguard 2 Rocket - Pass Details

Date: 19 May 2026
Orbit: 553 x 3286 km, 32.9° (Epoch: 6 June)

Event Time Altitude Azimuth Distance (km) Brightness Sun altitude
Rises 22:04:00 0° 279° (W) 6,712 12.4 32.2°
Reaches altitude 10° 22:09:06 10° 269° (W) 5,951 12.6 31.2°
Maximum altitude 22:24:01 29° 219° (SW) 4,774 11.3 28.5°
Drops below altitude 10° 22:38:40 10° 168° (SSE) 5,773 10.9 25.7°
Sets 22:43:37 0° 157° (SSE) 6,482 11.0 24.8°
